Probability
0 3 7 8 8 11 13 13 13 14 13 11 8 5 5 5 4 3 3 3 3 3 4 4 4 5 6 5 4 2 0 0 0 0 0 0 0 1 2 3 2 1 0
0 3 7 8 8 11 13 13 13 15 16 15 11 8 7 5 4 3 3 3 4 5 7 6 5 4 5 6 5 2 0 0 0 0 0 0 0 1 3 3 2 1 0
1 3 6 8 9 10 13 13 13 16 18 18 16 14 11 8 6 5 4 3 4 6 8 8 6 4 5 6 4 2 0 0 0 0 0 0 1 2 3 3 2 1 0
4 5 7 8 8 9 10 12 12 14 17 19 18 17 15 11 8 7 6 5 6 7 9 9 7 5 5 5 2 0 0 0 0 0 0 0 1 2 3 3 2 1 0
6 7 8 8 8 7 8 10 11 13 15 17 17 16 15 12 10 9 8 8 9 10 10 9 8 7 6 3 1 0 0 0 0 0 0 0 1 2 4 3 2 0 0
8 8 9 9 8 7 8 10 11 13 14 14 13 13 12 12 12 12 12 12 12 12 10 9 8 8 5 2 1 0 0 0 0 0 0 0 1 2 3 2 1 0 0
10 9 9 10 10 9 9 10 12 13 13 12 11 11 11 11 13 13 14 13 13 11 9 7 6 6 4 3 2 1 0 0 0 0 0 0 0 1 2 1 0 0 0
11 11 11 11 10 9 10 10 11 12 12 11 10 10 10 11 11 12 13 13 12 10 7 4 4 4 3 3 2 1 0 0 0 0 0 0 0 0 0 0 0 0 0
11 12 12 11 9 9 10 10 11 12 12 11 10 10 10 11 11 12 12 12 11 8 5 3 3 2 2 1 1 0 0 0 0 0 0 0 0 0 0 0 0 0 0
10 11 12 11 10 9 9 9 10 10 11 10 9 10 10 10 11 11 10 9 8 5 3 2 1 1 1 0 0 0 0 0 0 0 0 1 1 1 0 1 1 0 0
8 9 11 11 10 9 9 8 7 8 8 8 8 9 9 10 9 7 5 5 4 2 1 1 0 0 0 0 0 0 0 0 0 0 1 2 2 1 1 2 2 1 1
5 7 9 9 9 9 7 6 6 5 5 6 7 7 8 8 7 3 1 1 1 0 0 0 0 0 0 0 0 0 0 0 0 0 1 2 3 2 2 3 4 3 2
4 6 7 6 7 7 6 6 4 3 3 4 5 6 6 6 4 1 0 0 0 0 0 0 0 0 0 0 0 0 0 0 0 0 0 1 2 2 3 3 3 3 3
4 5 6 4 3 4 5 5 4 3 3 3 4 6 6 4 3 1 0 0 0 0 0 0 0 0 0 0 0 0 0 0 0 0 0 0 1 2 3 2 2 2 2
4 5 5 3 1 1 3 4 3 3 3 3 4 5 5 4 3 2 1 0 0 0 0 0 0 0 0 0 0 0 0 0 0 0 0 0 0 1 2 1 0 1 1
5 4 3 2 1 0 1 1 1 2 3 3 4 5 4 3 3 2 1 0 0 0 0 0 0 0 0 0 0 0 0 0 0 0 0 0 0 0 0 0 0 0 1
5 3 2 1 0 0 0 0 0 1 3 3 4 4 4 3 3 2 1 0 0 0 0 0 0 0 0 0 0 0 0 0 0 0 0 0 0 0 0 0 0 1 1
3 2 1 0 0 0 0 0 0 1 2 3 3 4 3 3 3 1 0 0 0 0 0 0 0 0 0 0 0 0 0 0 0 0 0 0 0 0 0 0 0 1 2
2 1 1 1 0 0 0 0 0 1 2 3 3 3 3 3 2 1 0 0 0 0 0 0 0 0 0 0 0 0 0 0 0 0 0 0 0 0 0 0 0 1 2
2 1 1 1 0 0 0 0 0 0 1 2 3 3 3 3 2 1 0 0 0 0 0 0 0 0 0 0 0 0 0 0 0 0 0 0 0 0 0 0 0 0 1
2 1 0 0 0 0 0 0 0 0 0 1 2 3 3 3 2 0 0 0 0 0 0 0 0 0 0 0 0 0 0 0 0 0 0 0 0 0 0 0 0 0 0
1 0 0 0 0 0 0 0 0 0 0 0 1 1 2 2 1 0 0 0 0 0 0 0 0 0 0 0 0 0 0 0 0 0 0 0 0 0 0 0 0 0 0
0 0 0 0 0 0 0 0 0 0 0 0 0 0 1 1 1 0 0 0 0 0 0 0 0 0 0 0 0 0 0 0 0 0 0 0 0 0 0 0 0 0 0
0 0 0 0 0 0 0 0 0 0 0 0 0 0 0 0 0 0 0 0 0 0 0 0 0 0 0 0 0 0 0 0 0 0 0 0 0 0 0 0 0 0 0
0 0 0 0 0 0 0 0 0 0 0 0 0 0 0 0 0 0 0 0 0 0 0 0 0 0 0 0 0 0 0 0 0 0 0 0 0 0 0 0 0 0 0
0 0 0 0 0 0 0 0 0 0 0 0 0 0 0 0 0 0 0 0 0 0 0 0 0 0 0 0 0 0 0 0 0 0 0 0 0 0 0 0 0 0 0
Wind_Speed
2 3 3 3 5 7 7 8 8 9 9 10 10 10 11 11 11 11 11 11 11 12 12 13 13 14 14 15 15 15 15 14 14 14 14 14 15 16 16 16 14 11 17
1 1 2 4 5 6 7 8 8 8 9 9 9 10 10 11 11 11 11 11 11 12 12 12 13 14 14 15 15 15 15 15 14 13 13 12 13 15 16 15 14 11 17
1 0 1 4 6 6 7 8 8 8 8 9 9 9 10 10 10 10 11 11 11 12 13 13 13 14 14 15 15 15 15 15 15 14 12 7 9 15 16 15 15 16 16
1 2 1 4 6 7 8 8 8 8 8 8 9 9 9 10 10 10 11 11 11 12 13 13 13 14 14 15 15 15 15 15 15 13 8 7 7 14 16 15 15 16 16
2 2 2 5 6 7 7 8 7 8 8 8 8 8 8 9 10 10 10 11 11 12 13 13 14 14 14 14 14 15 15 14 14 11 8 7 6 13 15 15 15 15 15
3 3 2 5 6 6 7 7 7 7 7 8 8 8 8 8 9 9 10 10 11 12 13 13 14 14 14 14 14 15 14 14 11 8 7 6 6 12 15 15 15 15 15
4 4 3 5 6 6 7 7 7 6 7 7 8 8 8 8 8 9 9 10 11 12 13 13 13 13 13 14 14 14 14 13 9 7 6 6 7 13 14 15 15 15 15
5 4 5 6 5 5 6 6 6 6 6 7 7 7 8 8 8 8 8 9 10 11 12 12 13 13 13 13 14 14 13 12 9 7 6 6 10 13 14 14 14 14 14
5 5 4 4 5 6 6 6 6 6 6 6 7 7 8 8 8 8 8 9 10 11 12 12 12 12 13 13 13 13 13 12 7 6 6 5 10 12 13 14 14 14 14
5 5 4 4 4 4 4 6 7 7 7 7 8 8 8 8 7 7 7 8 9 11 11 12 12 13 13 13 13 12 12 10 7 6 4 6 12 13 13 13 13 13 13
5 4 4 4 4 4 4 5 6 7 7 8 7 8 7 4 5 5 7 8 9 10 11 12 12 13 12 12 12 12 9 5 5 4 4 9 12 12 13 13 13 13 13
3 4 4 4 3 4 4 3 3 4 4 5 4 5 4 4 4 5 7 8 9 10 10 11 12 11 9 5 7 8 4 5 5 4 5 10 11 12 12 12 12 13 13
1 3 4 4 3 3 3 3 2 2 3 3 4 4 4 4 3 4 3 4 5 7 5 7 7 5 5 4 4 4 5 5 3 3 6 10 11 11 11 11 11 11 11
2 2 3 3 3 3 3 2 2 2 2 2 2 3 3 3 3 2 2 3 3 2 3 4 3 4 5 6 6 5 5 4 3 3 5 10 10 11 10 10 10 10 10
1 1 2 2 3 3 3 2 3 2 2 2 2 2 3 2 2 2 2 2 2 2 3 3 3 4 5 5 5 5 5 5 5 4 4 10 10 10 10 9 9 9 9
1 1 2 2 2 3 3 2 2 2 2 2 2 2 3 2 2 2 2 2 2 2 2 3 3 3 3 4 5 5 5 4 5 5 4 6 9 9 8 8 9 9 8
1 2 2 2 3 3 2 2 2 2 2 2 1 2 2 2 2 2 2 2 2 2 3 3 4 3 3 4 5 4 4 4 4 4 4 4 4 7 8 7 7 7 7
1 2 2 2 3 2 2 2 1 2 2 1 1 1 2 2 2 2 2 2 2 2 2 3 3 3 3 3 3 3 3 3 4 4 4 4 3 3 5 7 6 6 6
1 1 2 3 3 2 2 2 1 2 2 1 1 1 1 2 2 2 2 2 2 2 2 2 2 3 3 3 3 3 3 3 2 3 3 3 3 3 3 5 6 5 5
1 1 2 3 3 2 2 2 1 2 2 1 1 1 1 1 2 2 2 2 2 2 2 2 3 2 2 3 3 3 2 2 2 2 2 2 2 3 3 3 3 4 5
1 2 1 2 2 2 1 1 1 1 1 1 1 1 1 1 1 2 2 2 2 2 2 2 3 3 2 2 2 2 2 2 2 2 1 2 2 2 3 3 2 2 2
1 1 1 2 1 2 1 0 0 0 0 0 1 1 1 0 1 1 2 2 1 2 3 3 3 2 1 1 2 2 1 1 2 1 1 1 1 2 2 2 2 2 2
0 0 1 1 1 1 1 1 2 1 1 1 2 2 2 1 0 1 1 2 2 2 3 3 3 3 2 1 1 3 3 2 1 1 1 1 1 1 1 1 2 2 2
1 0 0 1 1 1 1 2 2 1 1 0 1 1 2 1 1 1 1 1 2 2 3 3 3 2 3 3 1 0 1 3 3 1 1 1 1 0 0 0 0 1 1
0 0 0 1 1 1 1 2 2 1 0 0 0 1 1 1 1 1 1 1 1 1 2 3 3 2 2 3 2 2 1 1 1 2 2 1 1 1 1 2 1 1 0
0 0 0 0 0 1 1 1 2 2 1 1 0 1 1 1 1 1 1 1 2 2 2 2 3 3 3 3 2 2 3 3 3 3 3 3 2 2 2 2 2 2 1
Wind_Direction
271 281 252 118 110 104 99 98 96 94 90 89 89 88 86 83 81 78 74 70 68 68 71 75 77 78 77 76 77 76 76 74 72 71 72 76 82 86 88 85 83 83 87
252 254 192 118 109 102 100 100 98 96 92 91 90 91 88 86 84 81 76 73 71 73 74 79 79 80 79 77 77 76 75 74 71 68 69 72 77 83 86 87 85 85 86
61 60 115 103 100 97 98 101 101 98 95 93 93 93 90 87 86 84 80 76 73 76 78 82 81 79 78 77 75 74 73 72 68 66 68 70 79 84 85 85 86 87 87
75 77 67 95 100 97 95 96 101 99 96 94 96 96 94 90 87 83 81 79 76 77 78 79 79 78 77 77 75 74 72 70 66 63 64 66 74 85 86 85 86 87 87
66 64 75 94 100 101 99 94 101 100 96 94 96 96 96 93 89 85 83 82 81 81 79 80 79 78 77 77 76 74 72 69 64 60 60 62 70 86 87 85 84 85 86
49 41 64 90 98 101 101 98 96 103 100 94 92 92 95 95 93 87 83 82 84 84 83 82 81 79 78 77 77 75 72 67 61 59 59 60 69 86 88 86 83 83 83
44 26 34 73 93 97 97 96 96 96 104 99 95 92 89 88 92 89 84 83 84 86 86 86 84 80 78 76 76 74 71 66 63 59 57 59 74 87 90 88 86 84 83
51 36 37 48 65 85 89 88 91 94 101 102 98 95 91 88 84 87 87 86 86 86 88 88 87 84 81 78 77 74 69 66 64 61 57 63 79 86 89 89 88 86 84
49 43 34 37 48 55 63 72 79 86 92 96 96 91 87 85 83 85 86 87 88 88 86 87 87 84 81 77 76 73 68 63 62 61 61 65 79 86 88 89 88 88 86
46 41 32 36 42 47 48 56 64 65 74 75 77 75 72 73 78 81 81 86 87 87 86 85 84 81 75 72 73 70 64 59 58 58 59 73 79 84 85 86 87 88 88
32 29 30 35 40 45 49 51 55 62 66 68 64 62 66 63 64 70 76 81 84 86 85 85 84 80 74 68 67 64 59 53 53 51 57 78 83 85 85 85 85 85 86
21 11 22 31 38 49 55 55 51 51 55 57 58 53 57 59 60 65 69 74 80 81 80 80 78 75 69 62 57 54 54 49 50 45 58 73 83 85 84 83 84 84 84
41 26 17 20 33 49 59 59 51 50 55 57 62 58 62 64 64 59 63 63 67 71 71 72 67 63 65 64 61 57 54 53 46 42 53 66 80 86 86 83 84 85 83
49 29 26 25 24 37 59 64 62 57 58 59 62 67 72 74 68 65 67 58 56 63 73 70 70 69 71 67 64 61 55 54 46 42 49 60 72 79 85 85 85 86 85
39 28 36 47 40 29 55 65 62 58 55 53 65 61 70 83 82 77 65 65 62 64 75 80 77 74 76 72 65 62 59 54 48 45 42 50 63 74 80 82 85 84 84
17 24 40 67 58 50 40 63 71 63 65 53 55 62 67 84 92 90 82 65 63 68 77 86 86 79 75 79 72 63 59 55 51 48 45 42 49 60 73 79 82 82 82
26 42 50 70 58 62 48 45 70 70 75 66 48 66 76 75 94 96 101 88 66 68 81 88 83 79 77 76 72 65 59 53 53 48 45 41 39 43 58 73 79 82 81
52 54 51 50 62 60 59 41 63 82 79 71 59 69 83 84 91 98 101 98 84 85 88 100 102 95 78 75 73 61 57 53 50 49 48 44 42 34 36 52 65 80 83
72 75 75 61 66 54 53 45 58 92 83 67 62 70 78 91 98 112 106 111 101 97 94 103 99 115 107 89 81 67 56 57 50 50 53 48 47 43 36 34 40 54 68
92 84 82 74 59 57 61 44 44 73 75 69 65 58 69 90 96 112 113 117 118 117 104 107 102 91 119 117 91 68 48 51 57 52 49 44 47 49 47 44 36 31 41
98 91 94 85 71 69 70 53 33 60 45 55 46 50 50 92 104 119 123 125 134 140 143 134 128 110 105 125 99 71 34 43 63 53 46 53 45 43 51 49 47 41 26
155 135 125 109 95 84 75 116 279 212 132 81 31 33 21 65 118 120 137 147 155 150 148 146 145 129 136 154 132 121 58 357 8 35 41 62 49 43 49 43 46 43 37
298 270 166 140 115 95 86 86 52 54 59 42 21 7 359 350 335 146 155 155 164 175 177 178 173 161 168 212 177 150 158 199 263 326 2 37 53 67 52 34 37 33 39
257 297 234 145 116 103 115 116 128 141 149 263 290 315 336 355 6 28 140 159 175 188 190 192 193 194 168 182 204 207 157 156 157 223 306 328 318 250 229 256 351 1 32
253 225 256 154 128 121 140 147 148 153 130 100 34 353 340 339 348 338 170 164 175 199 211 202 202 200 191 187 190 182 154 139 157 166 222 253 285 261 240 226 221 222 239
128 123 209 134 98 140 145 155 152 164 150 124 60 317 316 316 324 336 280 209 199 201 214 215 207 208 208 201 205 201 184 179 183 179 202 217 238 254 251 232 220 219 217